Showing default

KORSAT-3, 63630

Orbit data source: Space-Track

KORSAT-3, 63630 is a payload satellite owned by DAPA (KR) in LEO that was launched on Tue, 22 Apr 2025 UTC via an FALCON 9 launch vehicle from the Air Force Eastern Test Range (AFETR). Payload-class satellites include a variety of spacecraft equipped with specific instruments for various scientific and technological missions. These include communications satellites like Starlink; space stations such as the ISS; scientific satellites like the Hubble; Earth observation satellites from companies like Planet Labs, Umbra, and HawkEye 360; GPS; miniature CubeSats for education and research; and military/defense satellites.

Loading next visibility...
Identifier
63630, 2025-081A
Orbit
LEO
Country
Flag of UnknownUnknown / SKOR
Related business
Manufacturer
KAI
Mission
Operational Defense Radar Imaging
Bus & Motor
CAS500?, Unknown motor
Mass
~800 kg wet, ~750 kg dry
Launch date (UTC)
2025-04-22 (10 months ago)
Launch vehicle
FALCON 9
Launch site
Air Force Eastern Test Range (AFETR)
Object type
Payload
Rocket body
Debris
Shape & HBR
Hex Box + 3 Pan, 3.9 m
Radar Cross Section
10.467 m², Large (>1 m²)

Expand to show TLE details & history
Last TLE update: 17 hours ago

TLE from 17 hours ago
0 KORSAT-3
1 63630U 25081A   26036.17993510  .00007772  00000-0  64416-3 0  9993
2 63630  45.4116 300.4097 0011086 225.4005 134.5969 14.99315232 43371
Epoch: 2026-02-05T04:19Z
TLE epoch observation values (Epoch: 2026-02-05T04:19:06.392Z)
Latitude
-0.00006°
Longitude
100.29714°
Altitude
574.466 km
Speed
7.572 km/s
True Right ascension
20h 01m 38s
True Declination
0° 00' 00"
Sunlit
Object was in daylight at epoch
Visualization orbit readout
Latitude
Unknown
Longitude
Unknown
Altitude
Unknown
Speed
Unknown
Apparent Right ascension
Unknown
Apparent Declination
Unknown
Sunlit
N/A
Visualization observer readout
Local Sidereal Time
23:11:36
Azimuth
Unknown
Elevation
Unknown
Doppler factor
Unknown
Orbital elements
Apogee altitude
578.235 km
Perigee altitude
562.829 km
Semi-major axis
6,948.669 km
Eccentricity
0.00111
Inclination
45.4116°
RAAN
300.4097°
Arg. of periapsis
225.4005°
True anomaly
134.68727°
Mean anomaly
134.5969°
Eccentric anomaly
134.64209°
Mean motion
3.74706 °/min
Orbital period
96.08 mins
BSTAR
0.00064416
Loading maneuver chart data...
Computing Atmospheric mass density...
Loading historical data...
Loading historical data...
Loading historical data...
Loading historical data...
Loading historical data...
Loading historical data...
Loading historical data...
Other satellites on launch #81 in the year 2025 (2025-04-22 UTC)

Documentation

Showing up to 5 results
|